CW2434 Weather Reports


time (UTC)temp
C
wind
direction
speed
KPH
gust
KPH
rain 1hr
cm
rain 24hr
cm
rain mn
cm
humidity
%
barometer
mb
20260510224559 17 266 4.8 14.5 0.00 0.20 0.20 78 1013.4
20260510223053 17 201 1.6 12.9 0.00 0.20 0.20 74 1013.2
20260510221603 17 219 3.2 9.7 0.00 0.20 0.20 74 1013.2
20260510220054 17 274 4.8 12.9 0.00 0.20 0.20 75 1013.3
20260510214608 17 281 6.4 12.9 0.00 0.25 0.20 77 1013.3
20260510213056 17 320 4.8 11.3 0.00 0.25 0.20 75 1013.1
20260510211555 16 0 3.2 11.3 0.00 0.25 0.20 83 1013.2
20260510210054 15 0 0.0 1.6 0.03 0.25 0.20 92 1012.9
20260510204553 15 0 0.0 1.6 0.13 0.48 0.20 92 1012.7
20260510203052 14 0 0.0 0.0 0.18 0.48 0.20 92 1012.7
20260510201549 14 0 0.0 6.4 0.20 0.48 0.20 91 1012.7
20260510200054 14 0 0.0 6.4 0.18 0.46 0.18 90 1012.9
20260510194551 15 0 0.0 6.4 0.08 0.46 0.08 86 1013.2
20260510193104 15 169 0.0 9.7 0.03 0.41 0.03 81 1012.8
20260510191559 16 234 8.0 20.9 0.00 0.38 0.00 78 1012.8
20260510190053 17 200 3.2 12.9 0.00 0.38 0.00 71 1012.5
20260510184554 18 0 3.2 11.3 0.00 0.76 0.00 68 1012.4
20260510183050 18 213 6.4 12.9 0.00 0.76 0.00 66 1012.3
20260510181548 18 238 6.4 16.1 0.00 0.76 0.00 65 1012.4
20260510174549 19 0 0.0 17.7 0.00 0.79 0.00 63 1012.3
20260510173045 19 270 6.4 17.7 0.00 0.79 0.00 66 1012.2
20260510171552 18 262 9.7 19.3 0.00 0.79 0.00 68 1012.5
20260510170053 18 293 8.0 19.3 0.00 0.79 0.00 67 1012.8
20260510164556 18 248 8.0 20.9 0.00 0.81 0.00 66 1012.5
20260510163056 18 262 9.7 19.3 0.00 0.81 0.00 73 1012.5
20260510161548 17 270 9.7 20.9 0.00 0.81 0.00 70 1012.8
20260510160054 17 257 11.3 19.3 0.00 0.81 0.00 72 1012.9
20260510154556 17 207 8.0 17.7 0.00 0.84 0.00 73 1012.9
20260510153053 17 215 6.4 20.9 0.00 0.84 0.00 75 1012.8
20260510151557 16 200 9.7 17.7 0.00 0.84 0.00 78 1012.8
20260510150048 16 276 8.0 17.7 0.00 0.84 0.00 78 1012.8
20260510144609 15 135 3.2 12.9 0.00 0.84 0.00 82 1012.6
20260510143057 15 225 4.8 11.3 0.00 0.84 0.00 82 1012.7
20260510141547 14 119 4.8 14.5 0.00 0.84 0.00 85 1012.4
20260510140050 13 0 1.6 11.3 0.00 0.84 0.00 86 1012.3
20260510134552 13 167 1.6 9.7 0.00 0.84 0.00 86 1012.5
20260510133048 12 261 3.2 9.7 0.00 0.84 0.00 90 1012.6
20260510131551 12 250 1.6 11.3 0.00 0.84 0.00 91 1012.5
20260510130046 11 178 1.6 11.3 0.00 0.84 0.00 92 1012.5
20260510124550 11 0 0.0 6.4 0.00 0.84 0.00 93 1012.6
20260510123053 11 0 0.0 0.0 0.00 0.84 0.00 94 1012.2
20260510121555 11 0 0.0 0.0 0.00 0.84 0.00 94 1012.2
20260510120052 10 0 0.0 0.0 0.00 0.84 0.00 94 1012.2
20260510114547 10 0 0.0 0.0 0.00 0.84 0.00 95 1012.1
20260510113059 10 0 0.0 0.0 0.00 0.84 0.00 95 1011.8
20260510111551 10 0 0.0 0.0 0.00 0.84 0.00 95 1011.6
20260510110059 10 0 0.0 0.0 0.00 0.84 0.00 95 1011.4
20260510104547 10 0 0.0 4.8 0.00 0.84 0.00 95 1011.2
20260510103052 10 0 0.0 1.6 0.00 0.84 0.00 95 1011.5
20260510101556 10 0 0.0 6.4 0.00 0.84 0.00 95 1011.0
20260510100058 10 0 0.0 11.3 0.00 0.84 0.00 95 1011.2
20260510094552 9 0 0.0 11.3 0.00 0.84 0.00 95 1011.0
20260510093051 9 0 3.2 11.3 0.00 0.84 0.00 95 1010.9
20260510091552 9 135 4.8 12.9 0.00 0.84 0.00 95 1010.6
20260510090047 9 135 3.2 11.3 0.00 0.84 0.00 95 1010.8
20260510084553 9 0 0.0 4.8 0.00 0.86 0.00 95 1010.9
20260510083051 9 109 0.0 4.8 0.00 0.86 0.00 95 1011.0
20260510081552 9 144 0.0 3.2 0.00 0.86 0.00 95 1011.2
20260510074550 10 0 0.0 4.8 0.00 0.86 0.00 95 1011.6
20260510073110 10 240 1.6 9.7 0.00 0.86 0.00 95 1011.8
20260510071547 10 280 0.0 3.2 0.00 0.86 0.00 95 1011.6
20260510070056 10 0 0.0 0.0 0.00 0.86 0.00 95 1011.6
20260510064614 10 0 0.0 1.6 0.00 0.86 0.00 95 1011.2
20260510063048 10 167 0.0 3.2 0.00 0.86 0.00 95 1011.2
20260510061546 10 0 0.0 6.4 0.00 0.86 0.00 95 1011.2
20260510060050 10 0 0.0 0.0 0.00 0.86 0.00 95 1011.2
20260510054550 10 0 0.0 4.8 0.00 0.86 0.00 95 1011.3
20260510053054 9 0 0.0 4.8 0.00 0.86 0.00 95 1010.9
20260510051553 9 0 0.0 4.8 0.00 0.86 0.00 95 1010.9
20260510044602 8 0 0.0 1.6 0.00 0.86 0.00 94 1011.0
20260510043053 8 107 0.0 0.0 0.00 0.86 0.00 94 1011.0
20260510041553 8 0 0.0 0.0 0.00 0.86 0.00 95 1011.1
20260510040049 8 0 0.0 0.0 0.00 0.86 0.00 94 1011.0
20260510034608 9 0 0.0 0.0 0.00 0.86 0.86 94 1010.9
20260510033058 9 0 0.0 0.0 0.00 0.86 0.86 94 1010.8
20260510031555 9 0 0.0 4.8 0.00 0.86 0.86 94 1011.0
20260510030111 9 0 0.0 8.0 0.00 0.86 0.86 94 1011.2
20260510024553 9 0 0.0 4.8 0.00 0.86 0.86 94 1011.1
20260510023050 9 0 1.6 6.4 0.00 0.86 0.86 94 1010.9
20260510021559 9 0 0.0 0.0 0.00 0.86 0.86 94 1010.9
20260510020049 9 0 0.0 0.0 0.00 0.86 0.86 94 1010.9
20260510014600 9 0 0.0 0.0 0.00 0.86 0.86 93 1011.1
20260510013103 9 0 0.0 0.0 0.00 0.86 0.86 93 1010.7
20260510011554 10 0 0.0 0.0 0.00 0.86 0.86 92 1010.5
20260510010050 10 0 0.0 0.0 0.00 0.86 0.86 92 1010.6
20260510004550 10 0 0.0 3.2 0.00 0.86 0.86 92 1010.4
20260510003103 10 0 3.2 12.9 0.00 0.86 0.86 93 1009.9
20260510001551 10 85 4.8 16.1 0.00 0.86 0.86 92 1009.8
20260510000106 10 141 3.2 17.7 0.00 0.86 0.86 92 1009.6
20260509234549 11 0 0.0 4.8 0.00 0.86 0.86 92 1009.7
20260509233050 11 212 1.6 9.7 0.00 0.86 0.86 92 1009.8
20260509231553 11 223 3.2 12.9 0.00 0.86 0.86 91 1009.9
20260509230058 11 85 4.8 19.3 0.00 0.86 0.86 92 1009.5